Time,TemperatureF,DewpointF,PressureIn,WindDirection,WindDirectionDegrees,WindSpeedMPH,WindSpeedGustMPH,Humidity,HourlyPrecipIn,Conditions,Clouds,dailyrainin,SoftwareType,DateUTC
2013-05-08 00:00:00,53.0,49.0,29.70,North,-999,-999.0,-999.0,85,-99.99,,,-99.99,,2013-05-07 23:00:00,
2013-05-08 00:41:00,53.0,49.0,29.70,North,-999,-999.0,-999.0,85,-99.99,,,-99.99,,2013-05-07 23:41:00,
2013-05-08 00:52:00,53.0,49.0,29.70,North,-999,-999.0,-999.0,85,-99.99,,,-99.99,,2013-05-07 23:52:00,
2013-05-08 01:00:00,54.0,50.0,29.67,North,-999,-999.0,-999.0,85,-99.99,,,-99.99,,2013-05-08 00:00:00,
2013-05-08 01:41:00,54.0,50.0,29.67,North,-999,-999.0,-999.0,85,-99.99,,,-99.99,,2013-05-08 00:41:00,
2013-05-08 01:51:00,54.0,50.0,29.67,North,-999,-999.0,-999.0,85,-99.99,,,-99.99,,2013-05-08 00:51:00,
2013-05-08 04:00:00,53.0,47.0,29.48,North,-999,-999.0,-999.0,78,-99.99,,,-99.99,,2013-05-08 03:00:00,
2013-05-08 04:43:00,53.0,47.0,29.48,North,-999,-999.0,-999.0,78,-99.99,,,-99.99,,2013-05-08 03:43:00,
2013-05-08 04:52:00,53.0,47.0,29.48,North,-999,-999.0,-999.0,78,-99.99,,,-99.99,,2013-05-08 03:52:00,
2013-05-08 05:00:00,53.0,48.0,29.49,North,-999,-999.0,-999.0,83,-99.99,,,-99.99,,2013-05-08 04:00:00,
2013-05-08 05:32:00,53.0,48.0,29.49,North,-999,-999.0,-999.0,83,-99.99,,,-99.99,,2013-05-08 04:32:00,
2013-05-08 05:42:00,53.0,48.0,29.49,North,-999,-999.0,-999.0,83,-99.99,,,-99.99,,2013-05-08 04:42:00,
2013-05-08 05:52:00,53.0,48.0,29.49,North,-999,-999.0,-999.0,83,-99.99,,,-99.99,,2013-05-08 04:52:00,
2013-05-08 06:00:00,57.0,51.0,29.51,North,-999,-999.0,-999.0,82,-99.99,,,-99.99,,2013-05-08 05:00:00,
2013-05-08 06:42:00,57.0,51.0,29.51,North,-999,-999.0,-999.0,82,-99.99,,,-99.99,,2013-05-08 05:42:00,
2013-05-08 06:52:00,57.0,51.0,29.51,North,-999,-999.0,-999.0,82,-99.99,,,-99.99,,2013-05-08 05:52:00,
2013-05-08 07:00:00,57.0,52.0,29.47,North,-999,-999.0,-999.0,82,-99.99,,,-99.99,,2013-05-08 06:00:00,
2013-05-08 07:31:00,57.0,52.0,29.47,North,-999,-999.0,-999.0,82,-99.99,,,-99.99,,2013-05-08 06:31:00,
2013-05-08 07:41:00,57.0,52.0,29.47,North,-999,-999.0,-999.0,82,-99.99,,,-99.99,,2013-05-08 06:41:00,
2013-05-08 07:51:00,57.0,52.0,29.47,North,-999,-999.0,-999.0,82,-99.99,,,-99.99,,2013-05-08 06:51:00,
2013-05-08 08:00:00,55.0,53.0,29.46,North,-999,-999.0,-999.0,95,-99.99,,,-99.99,,2013-05-08 07:00:00,
2013-05-08 08:41:00,55.0,53.0,29.46,North,-999,-999.0,-999.0,95,-99.99,,,-99.99,,2013-05-08 07:41:00,
2013-05-08 08:52:00,55.0,53.0,29.46,North,-999,-999.0,-999.0,95,-99.99,,,-99.99,,2013-05-08 07:52:00,
2013-05-08 09:00:00,54.0,51.0,29.43,North,-999,-999.0,-999.0,90,-99.99,,,-99.99,,2013-05-08 08:00:00,
2013-05-08 09:42:00,54.0,51.0,29.43,North,-999,-999.0,-999.0,90,-99.99,,,-99.99,,2013-05-08 08:42:00,
2013-05-08 09:51:00,54.0,51.0,29.43,North,-999,-999.0,-999.0,90,-99.99,,,-99.99,,2013-05-08 08:51:00,
2013-05-08 10:00:00,49.0,49.0,29.35,North,-999,-999.0,-999.0,100,-99.99,,,-99.99,,2013-05-08 09:00:00,
2013-05-08 10:42:00,49.0,49.0,29.35,North,-999,-999.0,-999.0,100,-99.99,,,-99.99,,2013-05-08 09:42:00,
2013-05-08 10:52:00,49.0,49.0,29.35,North,-999,-999.0,-999.0,100,-99.99,,,-99.99,,2013-05-08 09:52:00,
2013-05-08 11:00:00,50.0,50.0,29.33,North,-999,-999.0,-999.0,100,-99.99,,,-99.99,,2013-05-08 10:00:00,
2013-05-08 11:42:00,50.0,50.0,29.33,North,-999,-999.0,-999.0,100,-99.99,,,-99.99,,2013-05-08 10:42:00,
2013-05-08 11:52:00,50.0,50.0,29.33,North,-999,-999.0,-999.0,100,-99.99,,,-99.99,,2013-05-08 10:52:00,
2013-05-08 12:00:00,57.0,53.0,29.38,North,-999,-999.0,-999.0,85,-99.99,,,-99.99,,2013-05-08 11:00:00,
2013-05-08 12:41:00,57.0,53.0,29.38,North,-999,-999.0,-999.0,85,-99.99,,,-99.99,,2013-05-08 11:41:00,
2013-05-08 12:51:00,57.0,53.0,29.38,North,-999,-999.0,-999.0,85,-99.99,,,-99.99,,2013-05-08 11:51:00,
2013-05-08 13:00:00,57.0,50.0,29.42,North,-999,-999.0,-999.0,76,-99.99,,,-99.99,,2013-05-08 12:00:00,
2013-05-08 13:31:00,57.0,50.0,29.42,North,-999,-999.0,-999.0,76,-99.99,,,-99.99,,2013-05-08 12:31:00,
2013-05-08 13:41:00,57.0,50.0,29.42,North,-999,-999.0,-999.0,76,-99.99,,,-99.99,,2013-05-08 12:41:00,
2013-05-08 13:51:00,57.0,50.0,29.42,North,-999,-999.0,-999.0,76,-99.99,,,-99.99,,2013-05-08 12:51:00,
2013-05-08 14:00:00,60.0,49.0,29.43,North,-999,-999.0,-999.0,68,-99.99,,,-99.99,,2013-05-08 13:00:00,
2013-05-08 14:42:00,60.0,49.0,29.43,North,-999,-999.0,-999.0,68,-99.99,,,-99.99,,2013-05-08 13:42:00,
2013-05-08 14:52:00,60.0,49.0,29.43,North,-999,-999.0,-999.0,68,-99.99,,,-99.99,,2013-05-08 13:52:00,
2013-05-08 15:00:00,63.0,44.0,29.42,North,-999,-999.0,-999.0,49,-99.99,,,-99.99,,2013-05-08 14:00:00,
2013-05-08 15:41:00,63.0,44.0,29.42,North,-999,-999.0,-999.0,49,-99.99,,,-99.99,,2013-05-08 14:41:00,
2013-05-08 15:51:00,63.0,44.0,29.42,North,-999,-999.0,-999.0,49,-99.99,,,-99.99,,2013-05-08 14:51:00,
2013-05-08 16:00:00,61.0,44.0,29.42,North,-999,-999.0,-999.0,52,-99.99,,,-99.99,,2013-05-08 15:00:00,
2013-05-08 16:42:00,61.0,44.0,29.42,North,-999,-999.0,-999.0,52,-99.99,,,-99.99,,2013-05-08 15:42:00,
2013-05-08 16:52:00,61.0,44.0,29.42,North,-999,-999.0,-999.0,52,-99.99,,,-99.99,,2013-05-08 15:52:00,
2013-05-08 17:00:00,51.0,46.0,29.37,North,-999,-999.0,-999.0,83,-99.99,,,-99.99,,2013-05-08 16:00:00,
2013-05-08 17:42:00,51.0,46.0,29.37,North,-999,-999.0,-999.0,83,-99.99,,,-99.99,,2013-05-08 16:42:00,
2013-05-08 17:52:00,51.0,46.0,29.37,North,-999,-999.0,-999.0,83,-99.99,,,-99.99,,2013-05-08 16:52:00,
2013-05-08 18:00:00,49.0,46.0,29.45,North,-999,-999.0,-999.0,89,-99.99,,,-99.99,,2013-05-08 17:00:00,
2013-05-08 18:52:00,49.0,46.0,29.45,North,-999,-999.0,-999.0,89,-99.99,,,-99.99,,2013-05-08 17:52:00,
2013-05-08 19:00:00,49.0,46.0,29.47,North,-999,-999.0,-999.0,89,-99.99,,,-99.99,,2013-05-08 18:00:00,
2013-05-08 19:41:00,49.0,46.0,29.47,North,-999,-999.0,-999.0,89,-99.99,,,-99.99,,2013-05-08 18:41:00,
2013-05-08 19:51:00,49.0,46.0,29.47,North,-999,-999.0,-999.0,89,-99.99,,,-99.99,,2013-05-08 18:51:00,
2013-05-08 20:00:00,49.0,45.0,29.57,North,-999,-999.0,-999.0,86,-99.99,,,-99.99,,2013-05-08 19:00:00,
2013-05-08 20:41:00,49.0,45.0,29.57,North,-999,-999.0,-999.0,86,-99.99,,,-99.99,,2013-05-08 19:41:00,
2013-05-08 20:52:00,49.0,45.0,29.57,North,-999,-999.0,-999.0,86,-99.99,,,-99.99,,2013-05-08 19:52:00,
2013-05-08 21:00:00,49.0,45.0,29.59,North,-999,-999.0,-999.0,87,-99.99,,,-99.99,,2013-05-08 20:00:00,
2013-05-08 21:41:00,49.0,45.0,29.59,North,-999,-999.0,-999.0,87,-99.99,,,-99.99,,2013-05-08 20:41:00,
2013-05-08 21:51:00,49.0,45.0,29.59,North,-999,-999.0,-999.0,87,-99.99,,,-99.99,,2013-05-08 20:51:00,
2013-05-08 22:00:00,48.0,46.0,29.52,North,-999,-999.0,-999.0,90,-99.99,,,-99.99,,2013-05-08 21:00:00,
2013-05-08 22:43:00,48.0,46.0,29.52,North,-999,-999.0,-999.0,90,-99.99,,,-99.99,,2013-05-08 21:43:00,
2013-05-08 22:52:00,48.0,46.0,29.52,North,-999,-999.0,-999.0,90,-99.99,,,-99.99,,2013-05-08 21:52:00,
2013-05-08 23:00:00,48.0,44.0,29.51,North,-999,-999.0,-999.0,86,-99.99,,,-99.99,,2013-05-08 22:00:00,
2013-05-08 23:42:00,48.0,44.0,29.51,North,-999,-999.0,-999.0,86,-99.99,,,-99.99,,2013-05-08 22:42:00,
2013-05-08 23:52:00,48.0,44.0,29.51,North,-999,-999.0,-999.0,86,-99.99,,,-99.99,,2013-05-08 22:52:00,